When you browse on this site, cookies collect data to enhance your experience and personalize the content and advertising you see.
Visit our Privacy Policy to learn more. By continuing to use the site, you agree to this use of cookies and data.
  • In Switzerland
  • List of Countries
  • For 7 days
  • Water Temperature
  • Satellite Maps
  • Weather Map
  • Weather Widgets
  • user-avatar
    Login

    Hourly Weather Batina

    Today, 25 March, Monday

    Time Temperature Precipitation Wind Pressure Humidity
    00:00 +8°C° 0 mm 2 mps 673 mmHg 64%
    01:00 +8°C° 0 mm 2 mps 672 mmHg 66%
    02:00 +7°C° 0 mm 2 mps 672 mmHg 67%
    03:00 +7°C° 0 mm 2 mps 672 mmHg 68%
    04:00 +7°C° 0 mm 2 mps 672 mmHg 68%
    05:00 +7°C° 0 mm 2 mps 672 mmHg 68%
    06:00 +7°C° 0 mm 2 mps 672 mmHg 68%
    07:00 +9°C° 0 mm 2 mps 672 mmHg 61%
    08:00 +11°C° 0 mm 3 mps 673 mmHg 54%
    09:00 +13°C° 0 mm 3 mps 673 mmHg 47%
    10:00 +14°C° 0 mm 3 mps 673 mmHg 45%
    11:00 +14°C° 0 mm 3 mps 673 mmHg 42%
    12:00 +15°C° 0 mm 4 mps 673 mmHg 39%
    13:00 +17°C° 0 mm 4 mps 672 mmHg 38%
    14:00 +16°C° 0 mm 5 mps 672 mmHg 37%
    15:00 +16°C° 0 mm 5 mps 671 mmHg 36%
    16:00 +15°C° 0 mm 4 mps 671 mmHg 39%
    17:00 +14°C° 0 mm 4 mps 671 mmHg 42%
    18:00 +13°C° 0 mm 3 mps 670 mmHg 46%
    19:00 +14°C° 0 mm 2 mps 670 mmHg 48%
    20:00 +13°C° 0 mm 2 mps 670 mmHg 51%
    21:00 +13°C° 0 mm 1 mps 671 mmHg 54%
    22:00 +12°C° 0 mm 1 mps 670 mmHg 56%
    23:00 +12°C° 0 mm 1 mps 670 mmHg 58%

    Tomorrow, 26 March, Tuesday

    Time Temperature Precipitation Wind Pressure Humidity
    00:00 +12°C° 0 mm 1 mps 670 mmHg 60%
    01:00 +11°C° 0 mm 1 mps 670 mmHg 60%
    02:00 +11°C° 0 mm 1 mps 669 mmHg 61%
    03:00 +10°C° 0 mm 1 mps 669 mmHg 62%
    04:00 +10°C° 0 mm 1 mps 669 mmHg 63%
    05:00 +9°C° 0 mm 1 mps 669 mmHg 65%
    06:00 +9°C° 0 mm 1 mps 669 mmHg 67%
    07:00 +11°C° 0 mm 1 mps 669 mmHg 63%
    08:00 +12°C° 0 mm 2 mps 670 mmHg 58%
    09:00 +14°C° 0 mm 2 mps 671 mmHg 53%
    10:00 +14°C° 0 mm 3 mps 671 mmHg 52%
    11:00 +14°C° 0 mm 3 mps 671 mmHg 50%
    12:00 +16°C° 0 mm 3 mps 671 mmHg 48%
    13:00 +14°C° 0.6 mm 4 mps 670 mmHg 55%
    14:00 +13°C° 0.6 mm 4 mps 670 mmHg 62%
    15:00 +12°C° 0.6 mm 4 mps 670 mmHg 69%
    16:00 +11°C° 1.5 mm 4 mps 670 mmHg 72%
    17:00 +10°C° 1.5 mm 4 mps 669 mmHg 76%
    18:00 +9°C° 1.5 mm 3 mps 669 mmHg 79%
    19:00 +7°C° 0.1 mm 4 mps 670 mmHg 79%
    20:00 +6°C° 0.1 mm 4 mps 670 mmHg 80%
    21:00 +5°C° 0.1 mm 4 mps 670 mmHg 81%
    22:00 +5°C° 0.1 mm 4 mps 670 mmHg 80%
    23:00 +4°C° 0.1 mm 4 mps 670 mmHg 80%

    Day after tomorrow, 27 March, Wednesday

    Time Temperature Precipitation Wind Pressure Humidity
    00:00 +4°C° 0.1 mm 4 mps 670 mmHg 80%
    01:00 +3°C° 0.3 mm 4 mps 670 mmHg 79%
    02:00 +3°C° 0.3 mm 4 mps 670 mmHg 78%
    03:00 +3°C° 0.3 mm 4 mps 669 mmHg 78%
    04:00 +3°C° 0.2 mm 4 mps 669 mmHg 78%
    05:00 +1°C° 0.2 mm 4 mps 669 mmHg 77%
    06:00 +1°C° 0.2 mm 4 mps 669 mmHg 77%
    07:00 +3°C° 0 mm 4 mps 670 mmHg 74%
    08:00 +4°C° 0 mm 4 mps 670 mmHg 71%
    09:00 +5°C° 0 mm 5 mps 671 mmHg 67%
    10:00 +6°C° 0 mm 4 mps 671 mmHg 64%
    11:00 +7°C° 0 mm 4 mps 671 mmHg 60%
    12:00 +8°C° 0 mm 4 mps 671 mmHg 56%
    13:00 +8°C° 0 mm 4 mps 671 mmHg 55%
    14:00 +8°C° 0 mm 4 mps 671 mmHg 54%
    15:00 +10°C° 0 mm 4 mps 670 mmHg 53%
    16:00 +8°C° 0 mm 4 mps 670 mmHg 59%
    17:00 +7°C° 0 mm 4 mps 670 mmHg 64%
    18:00 +6°C° 0 mm 4 mps 670 mmHg 70%
    19:00 +5°C° 0 mm 3 mps 671 mmHg 74%
    20:00 +4°C° 0 mm 3 mps 671 mmHg 79%
    21:00 +4°C° 0 mm 3 mps 671 mmHg 83%
    22:00 +3°C° 0 mm 3 mps 671 mmHg 86%
    23:00 +3°C° 0 mm 3 mps 671 mmHg 89%

    28 March, Thursday

    Time Temperature Precipitation Wind Pressure Humidity
    00:00 +4°C° 0 mm 2 mps 671 mmHg 92%
    01:00 +3°C° 0 mm 2 mps 671 mmHg 92%
    02:00 +3°C° 0 mm 2 mps 671 mmHg 92%
    03:00 +2°C° 0 mm 2 mps 671 mmHg 92%
    04:00 +3°C° 0 mm 2 mps 671 mmHg 91%
    05:00 +3°C° 0 mm 2 mps 671 mmHg 90%
    06:00 +3°C° 0 mm 2 mps 671 mmHg 89%
    07:00 +4°C° 0 mm 2 mps 672 mmHg 79%
    08:00 +6°C° 0 mm 2 mps 673 mmHg 69%
    09:00 +8°C° 0 mm 2 mps 674 mmHg 59%
    10:00 +10°C° 0 mm 1 mps 674 mmHg 53%
    11:00 +11°C° 0 mm 1 mps 674 mmHg 48%
    12:00 +12°C° 0 mm 1 mps 674 mmHg 42%
    13:00 +13°C° 0 mm 2 mps 674 mmHg 40%
    14:00 +13°C° 0 mm 2 mps 673 mmHg 38%
    15:00 +14°C° 0 mm 2 mps 673 mmHg 35%
    16:00 +13°C° 0 mm 2 mps 673 mmHg 39%
    17:00 +11°C° 0 mm 3 mps 673 mmHg 43%
    18:00 +10°C° 0 mm 3 mps 673 mmHg 47%
    19:00 +9°C° 0 mm 2 mps 674 mmHg 55%
    20:00 +8°C° 0 mm 2 mps 674 mmHg 63%
    21:00 +8°C° 0 mm 1 mps 674 mmHg 71%
    22:00 +8°C° 0 mm 1 mps 674 mmHg 74%
    23:00 +7°C° 0 mm 1 mps 674 mmHg 76%

    29 March, Friday

    Time Temperature Precipitation Wind Pressure Humidity
    00:00 +7°C° 0 mm 1 mps 674 mmHg 79%
    01:00 +7°C° 0 mm 1 mps 674 mmHg 77%
    02:00 +6°C° 0 mm 1 mps 673 mmHg 75%
    03:00 +6°C° 0 mm 1 mps 673 mmHg 73%
    04:00 +6°C° 0 mm 1 mps 673 mmHg 70%
    05:00 +6°C° 0 mm 1 mps 674 mmHg 68%
    06:00 +6°C° 0 mm 2 mps 674 mmHg 65%
    07:00 +7°C° 0 mm 2 mps 675 mmHg 60%
    08:00 +9°C° 0 mm 3 mps 675 mmHg 55%
    09:00 +10°C° 0 mm 3 mps 676 mmHg 49%
    10:00 +11°C° 0 mm 3 mps 676 mmHg 48%
    11:00 +12°C° 0 mm 3 mps 676 mmHg 47%
    12:00 +13°C° 0 mm 3 mps 675 mmHg 45%
    13:00 +13°C° 0 mm 3 mps 675 mmHg 46%
    14:00 +13°C° 0 mm 4 mps 675 mmHg 47%
    15:00 +13°C° 0 mm 4 mps 675 mmHg 47%
    16:00 +12°C° 0 mm 3 mps 675 mmHg 51%
    17:00 +12°C° 0 mm 3 mps 674 mmHg 54%
    18:00 +12°C° 0 mm 2 mps 674 mmHg 57%
    19:00 +10°C° 0 mm 2 mps 675 mmHg 61%
    20:00 +11°C° 0 mm 1 mps 675 mmHg 65%
    21:00 +10°C° 0 mm 1 mps 675 mmHg 69%
    22:00 +10°C° 0 mm 1 mps 675 mmHg 70%
    23:00 +10°C° 0 mm 1 mps 674 mmHg 70%

    30 March, Saturday

    Time Temperature Precipitation Wind Pressure Humidity
    00:00 +10°C° 0 mm 1 mps 674 mmHg 71%
    01:00 +10°C° 0 mm 1 mps 674 mmHg 70%
    02:00 +9°C° 0 mm 2 mps 674 mmHg 69%
    03:00 +9°C° 0 mm 2 mps 674 mmHg 68%
    04:00 +9°C° 0 mm 2 mps 674 mmHg 69%
    05:00 +8°C° 0 mm 3 mps 674 mmHg 70%
    06:00 +8°C° 0 mm 3 mps 674 mmHg 70%
    07:00 +10°C° 0 mm 3 mps 675 mmHg 64%
    08:00 +11°C° 0 mm 4 mps 675 mmHg 57%
    09:00 +13°C° 0 mm 5 mps 676 mmHg 51%
    10:00 +14°C° 0 mm 5 mps 675 mmHg 48%
    11:00 +14°C° 0 mm 5 mps 675 mmHg 46%
    12:00 +15°C° 0 mm 5 mps 675 mmHg 44%
    13:00 +17°C° 0 mm 4 mps 675 mmHg 44%
    14:00 +17°C° 0 mm 4 mps 674 mmHg 43%
    15:00 +17°C° 0 mm 3 mps 674 mmHg 43%
    16:00 +16°C° 0 mm 3 mps 674 mmHg 46%
    17:00 +14°C° 0 mm 3 mps 673 mmHg 49%
    18:00 +13°C° 0 mm 3 mps 673 mmHg 51%
    19:00 +12°C° 0 mm 3 mps 673 mmHg 53%
    20:00 +13°C° 0 mm 2 mps 673 mmHg 56%
    21:00 +12°C° 0 mm 2 mps 673 mmHg 58%
    22:00 +12°C° 0 mm 2 mps 673 mmHg 58%
    23:00 +12°C° 0 mm 2 mps 673 mmHg 58%
    Show more